LPE2694 SPJC-KMIA

Flight info

Callsign LPE2694
Flight time N/A
Altitude 33000
Route TISLI2 ILROL UM795 LOBOT/N0495F340 UM795 BOKAN/N0491F330 UM795 PML/N0489F350 UM795 COLBY/N0485F340 DCT NIBEO/N0484F350 DCT ALTIB/N0480F340 UM779 ZEUSS VIICE2
Aircraft B77W/H-HSDE1E2E3FGHIJ2J3J4J5M1RWXY/LB1D1

Departure

Time 2026-04-28 01:04
Airport Jorge Chávez International Airport (SPJC)

Arrival

Time N/A
Airport Miami International Airport (KMIA)
Time Latitude Longitude Altitude Speed Heading
2026-04-28 00:37 -12.02714 -77.11854 89 ft 0 kts 64°
2026-04-28 00:51 -12.02718 -77.11860 88 ft 4 kts 62°
2026-04-28 00:51 -12.02732 -77.11882 90 ft 4 kts 45°
2026-04-28 00:52 -12.02754 -77.11899 90 ft 4 kts 21°
2026-04-28 00:52 -12.02779 -77.11903 90 ft 4 kts 343°
2026-04-28 00:52 -12.02785 -77.11901 90 ft 0 kts 335°
2026-04-28 00:56 -12.02780 -77.11904 85 ft 3 kts 333°
2026-04-28 00:56 -12.02750 -77.11929 87 ft 9 kts 317°
2026-04-28 00:57 -12.02683 -77.11972 87 ft 14 kts 333°
2026-04-28 00:57 -12.02589 -77.12018 87 ft 15 kts 334°
2026-04-28 00:57 -12.02569 -77.12092 67 ft 16 kts 246°
2026-04-28 00:57 -12.02579 -77.12187 64 ft 13 kts 309°
2026-04-28 00:58 -12.02489 -77.12232 64 ft 17 kts 337°
2026-04-28 00:58 -12.02367 -77.12288 56 ft 21 kts 335°
2026-04-28 00:58 -12.02228 -77.12354 53 ft 23 kts 334°
2026-04-28 00:58 -12.02125 -77.12393 53 ft 13 kts
2026-04-28 00:59 -12.02068 -77.12322 51 ft 13 kts 64°
2026-04-28 00:59 -12.02028 -77.12237 53 ft 13 kts 64°
2026-04-28 00:59 -12.01988 -77.12151 55 ft 13 kts 63°
2026-04-28 00:59 -12.01946 -77.12066 55 ft 13 kts 63°
2026-04-28 01:00 -12.01900 -77.11970 60 ft 19 kts 64°
2026-04-28 01:00 -12.01842 -77.11853 60 ft 15 kts 63°
2026-04-28 01:00 -12.01758 -77.11821 63 ft 15 kts 336°
2026-04-28 01:00 -12.01657 -77.11872 64 ft 17 kts 330°
2026-04-28 01:01 -12.01531 -77.11939 44 ft 27 kts 334°
2026-04-28 01:01 -12.01361 -77.12021 59 ft 22 kts 335°
2026-04-28 01:01 -12.01244 -77.12119 54 ft 22 kts 308°
2026-04-28 01:01 -12.01131 -77.12204 51 ft 20 kts 329°
2026-04-28 01:02 -12.01009 -77.12266 53 ft 20 kts 335°
2026-04-28 01:02 -12.00891 -77.12311 49 ft 17 kts 355°
2026-04-28 01:02 -12.00815 -77.12228 53 ft 17 kts 63°
2026-04-28 01:02 -12.00780 -77.12150 51 ft 6 kts 78°
2026-04-28 01:03 -12.00799 -77.12121 49 ft 0 kts 148°
2026-04-28 01:03 -12.00807 -77.12116 52 ft 7 kts 150°
2026-04-28 01:03 -12.00979 -77.12024 50 ft 64 kts 154°
2026-04-28 01:04 -12.01662 -77.11691 65 ft 152 kts 155°
2026-04-28 01:04 -12.02859 -77.11154 206 ft 212 kts 158°
2026-04-28 01:04 -12.04241 -77.10529 1114 ft 215 kts 154°
2026-04-28 01:04 -12.05515 -77.09858 2396 ft 206 kts 153°
2026-04-28 01:05 -12.06865 -77.09151 2691 ft 230 kts 153°
2026-04-28 01:05 -12.08370 -77.08387 2957 ft 252 kts 154°
2026-04-28 01:05 -12.10031 -77.07709 3466 ft 262 kts 172°
2026-04-28 01:05 -12.11818 -77.07963 4025 ft 271 kts 207°
2026-04-28 01:06 -12.13207 -77.09234 4774 ft 273 kts 240°
2026-04-28 01:06 -12.13725 -77.11090 5508 ft 275 kts 274°
2026-04-28 01:06 -12.13162 -77.12936 6201 ft 277 kts 306°
2026-04-28 01:06 -12.11691 -77.14199 6822 ft 281 kts 339°
2026-04-28 01:07 -12.09780 -77.14650 7410 ft 286 kts 354°
2026-04-28 01:07 -12.07768 -77.14844 8044 ft 291 kts 355°
2026-04-28 01:07 -12.05744 -77.15040 8775 ft 293 kts 354°
2026-04-28 01:07 -12.03729 -77.15276 9469 ft 297 kts 353°
2026-04-28 01:08 -12.01673 -77.15559 10122 ft 301 kts 352°
2026-04-28 01:08 -11.99559 -77.15883 10538 ft 315 kts 351°
2026-04-28 01:08 -11.97308 -77.16247 10689 ft 338 kts 351°
2026-04-28 01:08 -11.94906 -77.16644 10860 ft 360 kts 351°
2026-04-28 01:09 -11.92354 -77.17026 11059 ft 380 kts 354°
2026-04-28 01:09 -11.89679 -77.17279 11531 ft 390 kts 355°
2026-04-28 01:09 -11.86959 -77.17512 12112 ft 396 kts 355°
2026-04-28 01:09 -11.84222 -77.17747 12788 ft 400 kts 355°
2026-04-28 01:10 -11.81438 -77.17992 13458 ft 403 kts 355°
2026-04-28 01:10 -11.78619 -77.18244 14081 ft 407 kts 355°
2026-04-28 01:10 -11.75792 -77.18500 14692 ft 410 kts 355°
2026-04-28 01:10 -11.72939 -77.18758 15343 ft 411 kts 356°
2026-04-28 01:11 -11.70085 -77.19017 15973 ft 413 kts 356°
2026-04-28 01:11 -11.67211 -77.19274 16574 ft 415 kts 356°
2026-04-28 01:11 -11.64316 -77.19535 17130 ft 419 kts 356°
2026-04-28 01:11 -11.61441 -77.19796 17672 ft 422 kts 356°
2026-04-28 01:12 -11.58510 -77.20062 18285 ft 424 kts 356°
2026-04-28 01:12 -11.55554 -77.20329 18775 ft 427 kts 356°
2026-04-28 01:12 -11.52585 -77.20597 19230 ft 431 kts 356°
2026-04-28 01:12 -11.49580 -77.20868 19667 ft 435 kts 356°
2026-04-28 01:13 -11.46548 -77.21142 20134 ft 438 kts 356°
2026-04-28 01:13 -11.40430 -77.21694 21016 ft 445 kts 356°
2026-04-28 01:13 -11.37337 -77.21972 21453 ft 448 kts 356°
2026-04-28 01:14 -11.34203 -77.22255 21871 ft 452 kts 356°
2026-04-28 01:14 -11.31105 -77.22535 22312 ft 455 kts 356°
2026-04-28 01:14 -11.27939 -77.22820 22729 ft 458 kts 356°
2026-04-28 01:14 -11.24754 -77.23107 23069 ft 462 kts 356°
2026-04-28 01:15 -11.21536 -77.23397 23420 ft 467 kts 356°
2026-04-28 01:15 -11.18277 -77.23690 23780 ft 470 kts 356°
2026-04-28 01:15 -11.15010 -77.23984 24142 ft 471 kts 356°
2026-04-28 01:15 -11.11736 -77.24278 24487 ft 473 kts 356°
2026-04-28 01:16 -11.08452 -77.24574 24835 ft 475 kts 355°
2026-04-28 01:16 -11.05190 -77.24868 25175 ft 477 kts 356°
2026-04-28 01:16 -11.01867 -77.25166 25569 ft 478 kts 355°
2026-04-28 01:16 -10.98536 -77.25466 25920 ft 480 kts 355°
2026-04-28 01:17 -10.95208 -77.25766 26236 ft 482 kts 355°
2026-04-28 01:17 -10.91849 -77.26068 26546 ft 485 kts 355°
2026-04-28 01:17 -10.88518 -77.26367 26868 ft 487 kts 355°
2026-04-28 01:17 -10.85130 -77.26672 27178 ft 489 kts 355°
2026-04-28 01:18 -10.81730 -77.26977 27495 ft 491 kts 355°
2026-04-28 01:18 -10.78321 -77.27284 27790 ft 493 kts 355°
2026-04-28 01:18 -10.74895 -77.27592 28104 ft 495 kts 355°
2026-04-28 01:18 -10.71452 -77.27901 28378 ft 497 kts 355°
2026-04-28 01:19 -10.68005 -77.28210 28664 ft 499 kts 355°
2026-04-28 01:19 -10.64523 -77.28523 28873 ft 502 kts 355°
2026-04-28 01:19 -10.61078 -77.28832 29128 ft 504 kts 355°
2026-04-28 01:19 -10.57596 -77.29144 29529 ft 503 kts 354°
2026-04-28 01:20 -10.54114 -77.29456 29972 ft 501 kts 354°
2026-04-28 01:20 -10.50643 -77.29766 30367 ft 499 kts 355°
2026-04-28 01:20 -10.47180 -77.30006 30724 ft 498 kts 356°
2026-04-28 01:20 -10.43732 -77.30177 31125 ft 496 kts 357°
2026-04-28 01:21 -10.40281 -77.30319 31482 ft 495 kts 357°
2026-04-28 01:21 -10.36831 -77.30457 31865 ft 493 kts 357°
2026-04-28 01:21 -10.33410 -77.30600 32173 ft 493 kts 356°
2026-04-28 01:21 -10.30002 -77.30750 32147 ft 495 kts 356°
2026-04-28 01:22 -10.23156 -77.31075 32155 ft 490 kts 356°
2026-04-28 01:22 -10.16342 -77.31409 32189 ft 490 kts 356°
2026-04-28 01:23 -10.09521 -77.31745 32193 ft 491 kts 356°
2026-04-28 01:23 -10.02688 -77.32079 32202 ft 491 kts 356°
2026-04-28 01:24 -9.95888 -77.32411 32202 ft 492 kts 356°
2026-04-28 01:24 -9.89040 -77.32745 32199 ft 493 kts 357°
2026-04-28 01:25 -9.82176 -77.33079 32218 ft 493 kts 356°
2026-04-28 01:25 -9.75345 -77.33412 32215 ft 493 kts 356°
2026-04-28 01:26 -9.68485 -77.33746 32211 ft 493 kts 357°
2026-04-28 01:26 -9.61627 -77.34079 32212 ft 493 kts 356°
2026-04-28 01:27 -9.54776 -77.34413 32215 ft 492 kts 357°
2026-04-28 01:27 -9.47927 -77.34745 32209 ft 491 kts 356°
2026-04-28 01:28 -9.41148 -77.35075 32212 ft 490 kts 356°
2026-04-28 01:28 -9.34329 -77.35406 32212 ft 489 kts 356°
2026-04-28 01:29 -9.27532 -77.35737 32200 ft 489 kts 357°
2026-04-28 01:29 -9.20732 -77.36066 32198 ft 489 kts 357°
2026-04-28 01:30 -9.13967 -77.36395 32193 ft 487 kts 357°
2026-04-28 01:30 -9.07190 -77.36723 32187 ft 486 kts 357°
2026-04-28 01:31 -9.01573 -77.36996 32168 ft 486 kts 357°
2026-04-28 01:31 -8.94806 -77.37324 32174 ft 486 kts 357°
2026-04-28 01:32 -8.88040 -77.37652 32173 ft 487 kts 357°
2026-04-28 01:32 -8.81253 -77.37980 32156 ft 488 kts 357°
2026-04-28 01:33 -8.74507 -77.38307 32160 ft 489 kts 357°
2026-04-28 01:33 -8.67714 -77.38636 32166 ft 489 kts 357°
2026-04-28 01:34 -8.60911 -77.38965 32153 ft 489 kts 357°
2026-04-28 01:34 -8.54158 -77.39292 32167 ft 488 kts 357°
2026-04-28 01:35 -8.47368 -77.39620 32169 ft 488 kts 357°
2026-04-28 01:35 -8.40598 -77.39947 32170 ft 486 kts 357°
2026-04-28 01:36 -8.33824 -77.40275 32164 ft 486 kts 357°
2026-04-28 01:36 -8.27079 -77.40600 32176 ft 486 kts 357°
2026-04-28 01:37 -8.20301 -77.40928 32172 ft 487 kts 357°
2026-04-28 01:37 -8.13575 -77.41252 32176 ft 486 kts 357°
2026-04-28 01:38 -8.06794 -77.41580 32167 ft 486 kts 357°
2026-04-28 01:38 -8.00045 -77.41905 32167 ft 485 kts 357°
2026-04-28 01:39 -7.93326 -77.42229 32162 ft 485 kts 357°
2026-04-28 01:39 -7.86579 -77.42555 32164 ft 485 kts 357°
2026-04-28 01:40 -7.79822 -77.42879 32146 ft 486 kts 357°
2026-04-28 01:40 -7.73070 -77.43205 32153 ft 485 kts 357°
2026-04-28 01:41 -7.66347 -77.43529 32145 ft 485 kts 357°
2026-04-28 01:41 -7.59589 -77.43854 32143 ft 486 kts 357°
2026-04-28 01:42 -7.52822 -77.44180 32151 ft 485 kts 357°
2026-04-28 01:42 -7.46112 -77.44503 32143 ft 486 kts 357°
2026-04-28 01:43 -7.39354 -77.44828 32137 ft 486 kts 358°
2026-04-28 01:43 -7.32597 -77.45154 32142 ft 486 kts 358°
2026-04-28 01:44 -7.25839 -77.45478 32146 ft 486 kts 358°
2026-04-28 01:44 -7.19081 -77.45804 32139 ft 486 kts 358°
2026-04-28 01:45 -7.12313 -77.46135 32131 ft 486 kts 358°
2026-04-28 01:45 -7.05552 -77.46467 32140 ft 486 kts 358°
2026-04-28 01:46 -6.98832 -77.46795 32137 ft 487 kts 358°
2026-04-28 01:46 -6.92058 -77.47126 32125 ft 487 kts 358°
2026-04-28 01:47 -6.85291 -77.47457 32122 ft 486 kts 358°
2026-04-28 01:47 -6.78522 -77.47787 32124 ft 486 kts 358°
2026-04-28 01:48 -6.71788 -77.48115 32121 ft 486 kts 358°
2026-04-28 01:48 -6.65018 -77.48445 32112 ft 487 kts 358°
2026-04-28 01:49 -6.58236 -77.48774 32116 ft 487 kts 358°
2026-04-28 01:49 -6.51455 -77.49102 32116 ft 488 kts 358°
2026-04-28 01:50 -6.44713 -77.49428 32114 ft 488 kts 358°
2026-04-28 01:50 -6.37915 -77.49757 32112 ft 488 kts 358°
2026-04-28 01:51 -6.31162 -77.50084 32115 ft 488 kts 358°
2026-04-28 01:51 -6.24387 -77.50412 32123 ft 487 kts 358°
2026-04-28 01:52 -6.17632 -77.50739 32104 ft 485 kts 358°
2026-04-28 01:52 -6.10900 -77.51065 32116 ft 483 kts 358°
2026-04-28 01:53 -6.04167 -77.51390 32102 ft 483 kts 358°
2026-04-28 01:53 -5.97475 -77.51712 32096 ft 484 kts 358°
2026-04-28 01:54 -5.90736 -77.52032 32102 ft 485 kts 357°
2026-04-28 01:54 -5.83970 -77.52353 32116 ft 487 kts 357°
2026-04-28 01:55 -5.77182 -77.52677 32087 ft 488 kts 357°
2026-04-28 01:55 -5.70447 -77.52998 32082 ft 488 kts 357°
2026-04-28 01:56 -5.63662 -77.53321 32070 ft 487 kts 357°
2026-04-28 01:56 -5.60267 -77.53483 32066 ft 487 kts 357°